Temp
-7 -7 -7 -7 -6 -6 -6 -6 -6 -6 -6 -6 -6 -7 -7 -7 -7 -7 -7 -6 -6 -6 -6 -6 -6 -6 -6 -6 -6 -6 -6 -6 -6 -6 -6 -6 -6 -6 -5 -5 -5 -5 -5 -5 -5 -5 -5 -5 -5 -5 -5 -5 -5 -5 -5 -5 -5 -5 -6 -5 -5 -5 -5
-7 -7 -7 -7 -7 -6 -6 -6 -6 -6 -6 -6 -6 -6 -7 -7 -7 -7 -7 -7 -6 -6 -6 -6 -6 -6 -6 -6 -6 -6 -6 -6 -6 -6 -6 -6 -6 -6 -5 -5 -5 -5 -5 -5 -5 -5 -5 -5 -6 -5 -5 -5 -5 -5 -5 -5 -5 -5 -5 -5 -5 -5 -5
-8 -8 -7 -7 -7 -6 -6 -6 -6 -6 -6 -6 -6 -6 -6 -7 -7 -7 -7 -7 -6 -6 -6 -6 -6 -6 -6 -6 -6 -6 -6 -6 -6 -6 -6 -6 -6 -6 -6 -5 -5 -5 -5 -6 -6 -5 -5 -5 -5 -5 -5 -5 -5 -5 -5 -5 -5 -5 -5 -5 -5 -5 -5
-8 -8 -8 -7 -7 -7 -7 -6 -6 -6 -6 -6 -6 -6 -6 -7 -7 -7 -7 -7 -6 -6 -6 -6 -6 -6 -5 -5 -6 -6 -6 -6 -6 -6 -6 -6 -6 -6 -6 -5 -5 -5 -5 -6 -6 -5 -5 -5 -5 -5 -5 -5 -5 -5 -5 -5 -5 -5 -5 -5 -5 -5 -4
-8 -8 -8 -8 -7 -7 -7 -7 -6 -6 -6 -6 -6 -6 -6 -7 -7 -7 -6 -6 -6 -6 -6 -6 -6 -6 -5 -5 -5 -6 -6 -6 -6 -6 -6 -6 -6 -6 -6 -6 -5 -5 -5 -5 -5 -5 -5 -5 -5 -5 -5 -5 -5 -5 -5 -5 -5 -5 -5 -5 -5 -5 -4
-8 -8 -8 -8 -8 -7 -7 -7 -7 -7 -6 -6 -6 -6 -6 -6 -6 -6 -6 -6 -6 -6 -6 -6 -6 -6 -5 -5 -5 -5 -6 -6 -6 -6 -6 -6 -6 -6 -6 -6 -6 -5 -5 -5 -5 -5 -5 -5 -5 -5 -5 -5 -5 -5 -4 -4 -4 -5 -5 -5 -5 -5 -4
-8 -8 -8 -8 -8 -8 -7 -7 -7 -7 -6 -6 -6 -6 -6 -6 -6 -6 -6 -6 -6 -6 -6 -6 -6 -6 -5 -5 -5 -5 -5 -6 -6 -6 -6 -5 -6 -6 -6 -6 -6 -6 -5 -6 -5 -5 -5 -5 -5 -5 -5 -5 -5 -4 -4 -4 -4 -4 -5 -5 -5 -5 -5
-8 -8 -8 -8 -8 -8 -8 -7 -7 -7 -7 -6 -6 -6 -7 -7 -6 -6 -6 -6 -6 -6 -6 -6 -6 -6 -6 -5 -5 -5 -5 -5 -5 -6 -6 -5 -6 -6 -6 -6 -6 -6 -6 -6 -6 -5 -5 -5 -5 -5 -5 -5 -5 -4 -4 -4 -4 -4 -4 -5 -5 -5 -5
-8 -8 -8 -8 -8 -8 -8 -8 -7 -7 -7 -6 -6 -6 -7 -7 -7 -6 -6 -6 -6 -6 -6 -6 -6 -6 -6 -5 -5 -5 -5 -5 -5 -5 -6 -5 -5 -6 -6 -6 -6 -6 -6 -6 -5 -5 -5 -5 -5 -5 -5 -5 -5 -5 -4 -4 -4 -4 -4 -4 -5 -5 -5
-8 -8 -8 -8 -8 -8 -8 -8 -7 -7 -7 -7 -7 -7 -7 -7 -7 -7 -6 -6 -6 -6 -6 -6 -6 -6 -6 -6 -6 -5 -5 -5 -5 -5 -5 -5 -6 -6 -6 -6 -6 -6 -6 -6 -6 -5 -5 -5 -5 -5 -5 -5 -5 -5 -5 -5 -4 -4 -4 -4 -5 -5 -5
-8 -8 -8 -8 -8 -8 -8 -8 -8 -7 -7 -7 -7 -7 -7 -7 -7 -7 -7 -6 -6 -6 -6 -6 -6 -6 -6 -6 -6 -5 -5 -5 -5 -5 -5 -6 -6 -6 -6 -6 -6 -6 -6 -6 -6 -6 -5 -5 -5 -5 -5 -5 -5 -5 -5 -5 -4 -4 -4 -4 -4 -5 -5
-8 -8 -8 -8 -8 -9 -9 -8 -8 -8 -8 -7 -7 -7 -7 -7 -7 -7 -7 -7 -6 -6 -6 -6 -6 -6 -6 -6 -6 -6 -6 -6 -5 -5 -5 -6 -6 -6 -6 -6 -6 -6 -6 -6 -6 -6 -6 -5 -5 -6 -6 -6 -5 -5 -5 -5 -5 -4 -4 -4 -4 -5 -5
-8 -8 -8 -8 -8 -9 -9 -9 -9 -9 -8 -8 -8 -8 -8 -7 -7 -7 -7 -7 -7 -6 -6 -6 -6 -6 -6 -6 -6 -6 -6 -6 -6 -6 -6 -6 -6 -6 -5 -6 -6 -6 -6 -6 -6 -6 -6 -6 -6 -6 -6 -6 -5 -5 -5 -5 -5 -5 -4 -4 -5 -5 -5
-8 -8 -8 -8 -8 -8 -8 -8 -9 -9 -9 -8 -8 -8 -8 -8 -8 -7 -7 -7 -7 -6 -6 -6 -6 -6 -6 -6 -5 -6 -6 -6 -6 -6 -6 -6 -6 -5 -5 -5 -5 -5 -5 -5 -5 -6 -6 -6 -6 -6 -6 -6 -5 -5 -5 -5 -5 -5 -5 -5 -5 -5 -5
-8 -8 -8 -8 -8 -8 -8 -8 -8 -9 -9 -9 -8 -8 -8 -8 -8 -7 -7 -7 -7 -7 -7 -6 -6 -6 -6 -6 -6 -6 -6 -6 -6 -6 -6 -6 -6 -6 -5 -5 -5 -5 -5 -5 -5 -5 -6 -6 -6 -6 -6 -6 -6 -6 -5 -5 -5 -5 -5 -5 -5 -5 -5
-8 -8 -8 -8 -8 -8 -8 -8 -8 -8 -8 -8 -8 -8 -8 -8 -8 -8 -8 -7 -7 -7 -7 -7 -7 -7 -7 -6 -6 -6 -6 -6 -5 -6 -6 -6 -6 -6 -6 -5 -5 -5 -5 -5 -5 -5 -5 -5 -6 -6 -6 -6 -6 -6 -6 -6 -6 -6 -6 -5 -5 -5 -5
-8 -8 -8 -8 -8 -8 -8 -8 -8 -8 -8 -8 -8 -8 -8 -8 -8 -8 -8 -8 -8 -7 -7 -7 -7 -7 -7 -7 -7 -7 -6 -6 -5 -5 -6 -6 -6 -6 -6 -6 -5 -5 -5 -5 -5 -5 -5 -5 -6 -6 -6 -6 -6 -6 -6 -6 -6 -6 -6 -5 -5 -5 -5
-8 -8 -8 -8 -8 -8 -8 -8 -8 -8 -8 -8 -8 -8 -8 -8 -8 -8 -8 -8 -8 -7 -7 -7 -7 -7 -7 -7 -7 -7 -7 -6 -6 -6 -6 -6 -6 -5 -6 -6 -5 -5 -5 -5 -5 -5 -5 -5 -5 -5 -5 -5 -6 -6 -6 -6 -6 -6 -6 -6 -5 -5 -5
-8 -8 -8 -8 -8 -8 -8 -8 -8 -8 -8 -8 -8 -8 -8 -8 -8 -8 -8 -8 -8 -7 -7 -7 -7 -7 -7 -7 -7 -7 -7 -7 -6 -6 -6 -6 -6 -5 -5 -5 -5 -5 -5 -5 -5 -5 -5 -5 -5 -5 -5 -5 -5 -5 -5 -6 -6 -6 -6 -6 -5 -5 -5
-9 -9 -8 -8 -8 -8 -8 -8 -8 -8 -8 -8 -8 -8 -8 -8 -8 -8 -8 -8 -8 -8 -7 -7 -7 -7 -7 -7 -7 -7 -7 -7 -7 -6 -6 -6 -6 -6 -5 -5 -5 -5 -5 -5 -5 -5 -5 -5 -5 -5 -5 -5 -5 -5 -5 -5 -6 -6 -6 -6 -6 -5 -5
-9 -9 -9 -9 -8 -8 -8 -8 -8 -8 -8 -8 -8 -8 -8 -8 -8 -8 -8 -8 -8 -8 -8 -7 -7 -6 -6 -7 -7 -7 -7 -7 -7 -7 -7 -7 -6 -6 -6 -6 -5 -5 -5 -5 -5 -5 -5 -5 -5 -5 -5 -5 -5 -5 -5 -5 -5 -6 -6 -6 -6 -5 -5
-9 -9 -9 -9 -9 -9 -8 -8 -8 -8 -8 -8 -8 -8 -8 -8 -8 -8 -8 -8 -8 -8 -8 -8 -7 -7 -6 -6 -6 -6 -7 -7 -7 -7 -7 -7 -7 -6 -6 -6 -6 -6 -6 -5 -5 -5 -5 -5 -5 -5 -5 -5 -5 -5 -5 -5 -5 -6 -6 -6 -6 -5 -5
-9 -9 -9 -9 -9 -9 -9 -9 -8 -8 -8 -8 -8 -8 -8 -8 -8 -8 -8 -8 -8 -8 -8 -8 -7 -7 -6 -6 -6 -6 -6 -7 -7 -7 -7 -7 -7 -6 -6 -7 -7 -6 -6 -6 -5 -5 -5 -6 -5 -5 -5 -5 -5 -5 -5 -5 -5 -5 -5 -6 -5 -5 -5
-9 -9 -9 -9 -9 -9 -9 -9 -9 -9 -8 -8 -8 -8 -8 -8 -8 -8 -8 -8 -8 -8 -8 -8 -8 -7 -7 -7 -7 -7 -7 -7 -7 -7 -7 -7 -7 -7 -6 -6 -6 -6 -6 -6 -6 -6 -6 -5 -5 -5 -5 -5 -5 -5 -5 -5 -5 -5 -5 -5 -5 -5 -5
-10 -9 -9 -9 -9 -9 -9 -9 -9 -9 -9 -9 -8 -8 -8 -8 -8 -8 -8 -8 -8 -8 -8 -8 -8 -8 -8 -7 -7 -7 -7 -7 -7 -7 -7 -7 -7 -7 -7 -6 -6 -6 -6 -6 -6 -6 -6 -6 -5 -5 -5 -6 -6 -5 -5 -5 -5 -5 -5 -5 -5 -5 -5
-10 -10 -10 -10 -9 -9 -9 -9 -9 -9 -9 -9 -9 -9 -9 -9 -8 -8 -8 -8 -8 -8 -8 -8 -8 -8 -8 -8 -8 -8 -8 -7 -7 -7 -7 -7 -7 -7 -7 -7 -6 -6 -6 -6 -6 -7 -6 -6 -6 -6 -6 -6 -6 -6 -6 -6 -5 -5 -5 -5 -5 -5 -5
-11 -10 -10 -10 -10 -10 -10 -9 -9 -9 -9 -9 -9 -9 -9 -9 -9 -8 -8 -8 -8 -8 -8 -8 -8 -8 -8 -8 -8 -8 -8 -8 -7 -7 -7 -7 -7 -7 -7 -7 -7 -7 -7 -7 -7 -7 -7 -6 -6 -6 -6 -6 -6 -6 -6 -6 -6 -6 -6 -5 -5 -5 -5
-11 -11 -10 -10 -10 -10 -10 -10 -9 -9 -9 -10 -10 -10 -9 -9 -9 -9 -8 -8 -8 -8 -8 -8 -8 -8 -8 -8 -8 -8 -8 -8 -8 -7 -7 -7 -7 -7 -7 -7 -7 -7 -7 -7 -7 -7 -7 -7 -6 -6 -6 -7 -6 -6 -6 -6 -6 -6 -6 -6 -6 -5 -5
-12 -12 -11 -10 -10 -10 -10 -10 -10 -10 -9 -9 -10 -10 -10 -10 -9 -9 -9 -9 -9 -8 -8 -8 -8 -8 -8 -8 -8 -8 -8 -8 -8 -8 -7 -7 -7 -7 -7 -7 -7 -7 -7 -7 -7 -7 -7 -7 -7 -6 -6 -6 -6 -6 -6 -6 -6 -6 -6 -6 -6 -6 -5
-12 -12 -12 -11 -11 -10 -10 -10 -10 -10 -10 -9 -10 -10 -10 -10 -10 -9 -9 -9 -9 -9 -9 -8 -8 -8 -8 -8 -8 -8 -8 -8 -8 -8 -8 -8 -7 -7 -7 -7 -7 -7 -7 -7 -7 -7 -7 -7 -7 -7 -6 -6 -7 -6 -6 -6 -6 -6 -6 -6 -6 -6 -5
-12 -12 -12 -12 -11 -11 -10 -10 -10 -10 -10 -10 -10 -10 -10 -10 -10 -10 -10 -9 -9 -9 -9 -9 -9 -8 -8 -8 -8 -8 -8 -8 -8 -8 -8 -8 -8 -8 -8 -7 -7 -7 -7 -7 -7 -7 -7 -7 -7 -7 -7 -7 -7 -7 -7 -6 -6 -6 -6 -6 -6 -6 -6
-12 -12 -12 -12 -12 -11 -11 -11 -10 -10 -10 -10 -10 -10 -10 -10 -10 -10 -10 -10 -10 -10 -9 -9 -9 -9 -9 -8 -8 -8 -8 -8 -8 -8 -8 -9 -8 -8 -8 -8 -8 -7 -7 -7 -7 -7 -7 -7 -7 -7 -7 -7 -7 -7 -7 -7 -6 -6 -6 -6 -6 -6 -6
-12 -12 -12 -12 -12 -12 -11 -11 -11 -11 -10 -10 -11 -10 -10 -10 -10 -10 -10 -10 -10 -10 -10 -9 -9 -9 -9 -9 -9 -8 -8 -8 -8 -8 -8 -8 -9 -9 -8 -8 -8 -8 -8 -8 -7 -7 -7 -7 -7 -7 -7 -7 -7 -7 -7 -7 -6 -6 -7 -7 -7 -6 -6
-12 -12 -12 -12 -12 -12 -12 -11 -11 -11 -11 -10 -11 -11 -10 -10 -10 -10 -10 -10 -10 -10 -10 -10 -10 -9 -9 -9 -9 -9 -8 -8 -8 -8 -8 -8 -8 -8 -8 -8 -8 -8 -8 -8 -7 -7 -7 -7 -7 -7 -7 -7 -7 -7 -7 -7 -6 -6 -7 -7 -7 -7 -6
-13 -12 -12 -12 -12 -12 -12 -12 -12 -11 -11 -11 -11 -11 -10 -10 -10 -10 -10 -10 -10 -10 -10 -10 -10 -10 -10 -9 -9 -9 -9 -9 -8 -8 -8 -8 -8 -8 -8 -8 -8 -8 -8 -8 -7 -7 -7 -7 -7 -7 -7 -7 -7 -7 -7 -7 -7 -7 -7 -8 -7 -7 -6
-13 -13 -13 -12 -12 -12 -12 -12 -12 -12 -11 -11 -11 -11 -10 -10 -11 -10 -10 -10 -10 -10 -10 -10 -10 -10 -10 -10 -10 -9 -9 -9 -9 -9 -9 -9 -8 -8 -8 -8 -8 -8 -8 -8 -7 -7 -7 -7 -7 -7 -7 -7 -7 -7 -7 -7 -7 -8 -8 -7 -7 -7 -6
-14 -14 -13 -13 -13 -12 -12 -12 -12 -12 -12 -12 -12 -11 -11 -10 -11 -11 -10 -10 -10 -10 -10 -10 -10 -10 -10 -10 -10 -10 -9 -9 -9 -9 -9 -9 -8 -8 -8 -7 -8 -8 -8 -7 -7 -7 -7 -8 -7 -7 -7 -7 -7 -7 -7 -7 -7 -7 -7 -7 -7 -7 -6
-16 -15 -14 -14 -13 -13 -13 -12 -12 -12 -12 -12 -12 -12 -11 -11 -10 -11 -11 -10 -10 -10 -10 -11 -11 -11 -10 -10 -10 -10 -10 -9 -9 -9 -9 -9 -9 -9 -9 -8 -8 -8 -7 -7 -7 -7 -7 -7 -8 -8 -7 -7 -7 -7 -7 -7 -7 -7 -7 -7 -7 -6 -6
Height
5904 5906 5907 5908 5909 5911 5912 5914 5914 5915 5916 5917 5918 5919 5920 5922 5924 5925 5927 5928 5929 5931 5932 5934 5935 5937 5938 5940 5941 5943 5944 5945 5946 5947 5948 5949 5950 5951 5952 5953 5954 5955 5956 5957 5958 5959 5960 5961 5962 5963 5963 5964 5964 5964 5965 5965 5965 5966 5966 5966 5967 5967 5968
5903 5904 5906 5907 5908 5909 5911 5912 5914 5915 5916 5917 5917 5918 5919 5921 5922 5924 5925 5926 5928 5930 5931 5933 5934 5935 5936 5938 5940 5942 5944 5945 5945 5946 5947 5948 5950 5950 5951 5952 5953 5954 5955 5956 5957 5958 5959 5960 5961 5962 5963 5964 5964 5965 5965 5965 5966 5966 5966 5967 5967 5968 5968
5902 5903 5904 5906 5907 5907 5909 5910 5912 5914 5915 5916 5917 5918 5919 5920 5921 5922 5923 5924 5926 5928 5929 5931 5933 5934 5935 5937 5939 5941 5943 5944 5945 5945 5946 5947 5948 5950 5951 5952 5953 5954 5954 5955 5956 5957 5958 5960 5961 5962 5963 5963 5964 5964 5965 5965 5966 5966 5967 5967 5967 5968 5969
5900 5901 5903 5904 5905 5906 5907 5908 5910 5912 5913 5914 5915 5916 5917 5917 5919 5920 5921 5923 5924 5926 5927 5929 5931 5932 5934 5936 5938 5940 5942 5943 5944 5945 5945 5946 5948 5949 5950 5951 5952 5953 5954 5954 5955 5956 5958 5959 5960 5961 5962 5963 5963 5964 5965 5965 5966 5966 5967 5968 5968 5969 5969
5899 5900 5902 5903 5904 5905 5906 5907 5908 5910 5911 5912 5913 5914 5915 5915 5917 5918 5920 5921 5922 5924 5925 5926 5928 5931 5933 5935 5936 5938 5940 5942 5943 5944 5945 5946 5947 5948 5949 5950 5951 5952 5953 5954 5954 5956 5957 5958 5959 5960 5961 5962 5963 5963 5964 5965 5965 5966 5967 5968 5968 5969 5969
5897 5899 5900 5901 5902 5903 5903 5905 5906 5908 5909 5910 5912 5913 5914 5915 5916 5917 5918 5919 5921 5922 5923 5925 5927 5929 5931 5933 5935 5936 5938 5940 5942 5943 5944 5945 5946 5947 5948 5948 5949 5951 5952 5953 5954 5955 5956 5957 5958 5960 5961 5962 5962 5963 5964 5964 5965 5966 5967 5968 5968 5969 5970
5896 5898 5898 5899 5899 5900 5901 5902 5904 5905 5907 5908 5910 5911 5913 5915 5916 5916 5917 5918 5919 5920 5921 5923 5925 5927 5929 5931 5933 5935 5937 5938 5940 5941 5943 5944 5945 5946 5946 5947 5948 5950 5951 5952 5953 5954 5955 5956 5957 5959 5960 5961 5962 5963 5963 5964 5965 5965 5966 5967 5968 5969 5970
5894 5896 5897 5897 5898 5898 5899 5901 5902 5903 5904 5906 5908 5909 5911 5913 5915 5916 5917 5917 5918 5919 5921 5922 5923 5925 5926 5929 5931 5933 5935 5936 5938 5939 5941 5942 5944 5944 5945 5946 5947 5948 5950 5951 5952 5953 5954 5955 5956 5958 5959 5960 5961 5962 5963 5963 5964 5965 5966 5967 5968 5969 5969
5892 5894 5895 5896 5896 5897 5898 5899 5900 5901 5903 5904 5906 5908 5909 5911 5913 5914 5915 5916 5917 5919 5920 5921 5922 5923 5924 5926 5928 5930 5932 5934 5936 5937 5939 5940 5942 5943 5944 5944 5946 5947 5948 5949 5950 5952 5953 5954 5955 5956 5957 5959 5960 5960 5961 5962 5963 5964 5965 5966 5967 5968 5969
5890 5891 5893 5894 5894 5895 5896 5897 5899 5900 5902 5903 5905 5906 5908 5909 5911 5912 5913 5915 5916 5917 5918 5919 5921 5922 5923 5925 5926 5927 5929 5932 5933 5935 5937 5938 5940 5941 5942 5943 5944 5946 5947 5948 5949 5950 5951 5952 5954 5955 5956 5957 5958 5959 5960 5961 5962 5963 5964 5965 5965 5966 5968
5887 5888 5890 5891 5892 5894 5895 5895 5896 5898 5899 5901 5902 5904 5905 5907 5908 5909 5911 5912 5914 5915 5916 5917 5919 5921 5922 5923 5924 5925 5927 5929 5931 5933 5934 5936 5937 5938 5939 5941 5943 5944 5945 5946 5948 5949 5950 5951 5952 5953 5954 5955 5956 5957 5958 5959 5960 5961 5962 5963 5964 5965 5966
5883 5885 5887 5889 5890 5891 5892 5893 5894 5895 5897 5898 5900 5901 5903 5904 5906 5907 5908 5910 5911 5912 5913 5914 5917 5918 5920 5921 5922 5924 5926 5927 5929 5931 5932 5933 5934 5935 5937 5939 5940 5942 5943 5944 5946 5947 5948 5949 5951 5952 5953 5953 5954 5955 5956 5957 5958 5959 5961 5962 5963 5964 5965
5879 5882 5884 5885 5887 5889 5890 5891 5892 5893 5894 5895 5897 5899 5900 5901 5902 5904 5906 5907 5909 5909 5910 5912 5915 5916 5918 5919 5920 5922 5923 5925 5927 5928 5929 5930 5931 5932 5934 5936 5937 5939 5940 5942 5944 5945 5946 5948 5949 5950 5951 5951 5952 5953 5954 5955 5957 5958 5959 5960 5961 5962 5963
5875 5877 5880 5882 5884 5885 5887 5888 5890 5891 5892 5893 5894 5896 5898 5899 5900 5901 5903 5904 5906 5907 5909 5911 5912 5914 5915 5916 5918 5920 5921 5922 5924 5925 5926 5927 5929 5930 5932 5933 5935 5936 5938 5940 5941 5943 5944 5945 5947 5948 5949 5950 5951 5952 5953 5954 5955 5956 5957 5958 5959 5960 5961
5870 5872 5875 5877 5880 5882 5884 5885 5886 5888 5889 5890 5892 5893 5895 5896 5897 5899 5900 5900 5902 5905 5907 5909 5910 5912 5913 5914 5915 5918 5919 5919 5921 5922 5923 5925 5926 5928 5929 5931 5932 5934 5935 5937 5939 5940 5942 5943 5944 5946 5947 5948 5949 5950 5951 5952 5954 5954 5955 5956 5957 5958 5959
5865 5867 5870 5873 5875 5877 5880 5881 5883 5884 5886 5887 5889 5890 5892 5893 5895 5896 5897 5897 5899 5901 5904 5906 5908 5909 5911 5912 5914 5915 5916 5916 5918 5919 5921 5922 5924 5925 5927 5928 5930 5931 5933 5935 5936 5938 5939 5941 5943 5944 5945 5946 5947 5948 5949 5951 5952 5953 5953 5954 5955 5956 5957
5860 5863 5865 5868 5870 5873 5875 5877 5879 5881 5883 5884 5886 5887 5889 5890 5892 5893 5894 5895 5896 5898 5900 5902 5904 5906 5908 5910 5911 5912 5913 5913 5915 5916 5918 5920 5921 5922 5924 5925 5927 5928 5930 5932 5934 5935 5937 5939 5940 5942 5943 5944 5945 5946 5948 5949 5950 5951 5951 5952 5953 5954 5955
5856 5858 5860 5863 5866 5868 5870 5873 5875 5877 5879 5881 5882 5884 5886 5887 5888 5890 5891 5892 5893 5895 5897 5898 5900 5902 5904 5906 5907 5909 5910 5911 5912 5913 5915 5916 5918 5919 5921 5922 5923 5925 5927 5929 5930 5932 5934 5936 5937 5939 5940 5942 5943 5944 5945 5947 5948 5948 5948 5949 5950 5951 5952
5851 5853 5855 5858 5860 5863 5866 5868 5870 5872 5874 5876 5878 5880 5882 5884 5885 5886 5888 5889 5891 5892 5894 5894 5896 5898 5900 5901 5903 5905 5907 5908 5909 5911 5912 5914 5915 5916 5917 5919 5920 5923 5924 5925 5926 5928 5930 5933 5934 5935 5937 5938 5940 5941 5943 5944 5945 5945 5946 5947 5948 5949 5950
5845 5848 5850 5853 5855 5858 5860 5863 5865 5867 5869 5871 5873 5876 5878 5880 5881 5883 5885 5886 5888 5889 5890 5891 5892 5894 5896 5898 5899 5902 5903 5904 5906 5908 5909 5911 5912 5914 5915 5917 5918 5921 5922 5923 5924 5926 5928 5929 5931 5932 5933 5934 5936 5937 5939 5940 5942 5942 5943 5944 5945 5946 5947
5840 5842 5845 5847 5850 5852 5855 5857 5860 5862 5864 5866 5868 5871 5873 5875 5877 5879 5881 5883 5884 5885 5886 5887 5889 5890 5892 5894 5896 5898 5899 5900 5902 5904 5906 5907 5909 5911 5913 5914 5916 5918 5919 5920 5922 5924 5926 5927 5928 5929 5931 5931 5932 5934 5935 5937 5938 5939 5940 5941 5942 5943 5944
5834 5836 5839 5842 5845 5847 5849 5851 5854 5856 5859 5861 5864 5866 5868 5870 5873 5875 5877 5879 5880 5882 5883 5884 5885 5886 5886 5887 5890 5892 5895 5897 5899 5901 5902 5903 5905 5907 5909 5910 5911 5913 5915 5916 5918 5921 5923 5925 5926 5928 5929 5929 5930 5931 5932 5934 5935 5936 5937 5938 5939 5940 5941
5828 5830 5833 5836 5839 5842 5844 5846 5848 5850 5853 5856 5858 5860 5862 5865 5868 5870 5872 5874 5876 5878 5879 5880 5881 5881 5880 5882 5886 5889 5891 5894 5896 5898 5899 5901 5902 5904 5905 5906 5907 5909 5911 5913 5915 5917 5920 5921 5923 5925 5927 5928 5928 5929 5931 5931 5931 5932 5933 5934 5935 5937 5939
5822 5824 5827 5830 5832 5836 5839 5841 5843 5845 5847 5850 5852 5855 5857 5859 5862 5865 5867 5869 5871 5873 5875 5876 5876 5875 5876 5879 5884 5886 5888 5890 5892 5894 5896 5898 5899 5901 5902 5903 5904 5905 5907 5909 5911 5914 5916 5917 5919 5921 5924 5926 5927 5928 5929 5930 5929 5929 5930 5931 5932 5934 5936
5816 5818 5820 5823 5826 5829 5832 5835 5837 5839 5842 5844 5846 5849 5851 5854 5856 5859 5861 5864 5866 5868 5870 5871 5871 5871 5873 5876 5879 5881 5883 5886 5887 5889 5891 5893 5895 5897 5898 5899 5901 5902 5904 5906 5907 5909 5911 5912 5915 5917 5919 5921 5924 5925 5927 5928 5928 5928 5928 5928 5929 5930 5933
5810 5812 5814 5817 5820 5822 5825 5829 5831 5834 5836 5838 5841 5843 5846 5848 5851 5853 5855 5858 5861 5863 5864 5866 5866 5867 5869 5872 5874 5876 5878 5879 5881 5884 5886 5888 5890 5892 5893 5895 5897 5899 5901 5902 5903 5905 5906 5908 5910 5913 5914 5915 5918 5920 5923 5925 5926 5926 5926 5926 5926 5927 5929
5804 5806 5808 5811 5813 5815 5819 5821 5824 5827 5830 5832 5835 5837 5839 5842 5845 5847 5849 5852 5856 5858 5859 5861 5862 5864 5866 5867 5869 5872 5872 5873 5875 5878 5881 5883 5885 5887 5888 5890 5892 5895 5897 5898 5899 5900 5902 5903 5905 5908 5910 5910 5911 5913 5916 5919 5922 5923 5923 5923 5923 5924 5925
5798 5800 5802 5804 5806 5809 5812 5814 5817 5820 5823 5826 5828 5831 5833 5836 5838 5841 5843 5846 5849 5852 5854 5855 5858 5861 5862 5863 5864 5866 5868 5869 5871 5873 5876 5878 5880 5882 5883 5885 5887 5889 5892 5893 5894 5896 5897 5898 5900 5903 5906 5907 5907 5909 5911 5913 5915 5917 5918 5919 5920 5920 5921
5790 5793 5796 5797 5799 5802 5805 5807 5810 5813 5816 5819 5822 5824 5827 5829 5832 5835 5837 5840 5842 5845 5848 5850 5852 5855 5858 5859 5860 5862 5863 5865 5866 5869 5871 5873 5875 5877 5878 5880 5882 5885 5887 5888 5890 5892 5893 5895 5896 5899 5901 5903 5904 5905 5906 5908 5910 5911 5913 5914 5915 5915 5916
5782 5785 5788 5790 5792 5795 5798 5801 5803 5805 5808 5811 5814 5817 5820 5823 5825 5828 5831 5833 5835 5838 5841 5844 5846 5848 5852 5854 5855 5857 5859 5860 5862 5864 5866 5868 5870 5872 5874 5875 5877 5880 5882 5883 5885 5887 5889 5891 5893 5894 5897 5899 5900 5901 5902 5903 5904 5906 5907 5909 5910 5910 5911
5774 5776 5780 5783 5785 5787 5790 5793 5796 5798 5800 5803 5806 5810 5813 5815 5818 5821 5824 5826 5828 5831 5835 5838 5840 5842 5845 5848 5850 5852 5854 5856 5858 5859 5861 5862 5864 5867 5869 5871 5873 5875 5877 5879 5881 5883 5885 5887 5888 5890 5892 5894 5896 5897 5897 5897 5898 5899 5901 5903 5905 5905 5906
5765 5768 5771 5775 5777 5780 5782 5785 5789 5792 5794 5796 5798 5801 5805 5808 5811 5814 5817 5820 5822 5824 5828 5831 5833 5836 5839 5842 5844 5846 5847 5850 5853 5855 5856 5858 5859 5861 5863 5866 5868 5870 5872 5874 5876 5878 5879 5881 5883 5885 5887 5889 5891 5892 5892 5892 5893 5894 5896 5898 5900 5901 5901
5757 5759 5762 5765 5769 5772 5774 5777 5780 5784 5787 5789 5791 5793 5796 5800 5803 5806 5809 5812 5815 5818 5821 5824 5826 5829 5832 5835 5838 5840 5841 5844 5847 5849 5852 5854 5856 5857 5858 5860 5863 5865 5867 5869 5871 5872 5874 5876 5877 5880 5882 5883 5885 5886 5887 5888 5889 5891 5892 5894 5896 5898 5897
5747 5750 5752 5755 5759 5763 5766 5769 5772 5775 5778 5781 5783 5785 5788 5792 5795 5799 5802 5805 5808 5811 5814 5817 5820 5823 5825 5828 5831 5834 5836 5838 5840 5842 5845 5849 5851 5853 5854 5855 5857 5859 5862 5863 5865 5867 5869 5870 5872 5874 5876 5878 5879 5881 5882 5884 5885 5886 5886 5886 5890 5894 5894
5738 5740 5743 5745 5749 5752 5756 5760 5763 5766 5769 5773 5775 5777 5780 5783 5787 5790 5793 5797 5800 5803 5806 5809 5812 5816 5819 5821 5824 5828 5830 5832 5834 5836 5839 5842 5845 5847 5848 5849 5851 5854 5856 5857 5859 5861 5863 5865 5867 5868 5870 5872 5874 5876 5878 5880 5879 5879 5880 5882 5885 5888 5887
5729 5731 5733 5736 5738 5742 5746 5750 5753 5756 5760 5763 5766 5768 5772 5775 5778 5781 5785 5788 5792 5795 5798 5801 5804 5808 5812 5814 5816 5820 5823 5825 5827 5831 5833 5836 5839 5841 5843 5844 5845 5848 5850 5851 5853 5855 5858 5860 5861 5862 5863 5866 5868 5871 5873 5874 5873 5873 5876 5879 5882 5884 5883
5720 5722 5724 5726 5728 5731 5735 5739 5743 5747 5750 5753 5756 5759 5762 5766 5770 5773 5776 5779 5783 5786 5790 5793 5796 5800 5804 5807 5809 5812 5816 5819 5821 5824 5827 5830 5833 5835 5836 5838 5840 5842 5845 5846 5847 5849 5852 5855 5856 5857 5857 5859 5862 5864 5867 5868 5868 5868 5871 5873 5875 5877 5878
5714 5715 5716 5718 5719 5721 5723 5727 5732 5736 5740 5743 5747 5750 5753 5756 5761 5765 5767 5771 5774 5777 5781 5785 5788 5791 5795 5798 5801 5804 5808 5811 5814 5816 5820 5823 5826 5828 5830 5832 5834 5836 5838 5840 5841 5843 5846 5849 5851 5852 5852 5853 5855 5858 5860 5862 5862 5863 5864 5865 5866 5868 5868
Wind_Speed
26 26 26 26 25 23 22 22 21 21 20 18 17 17 15 14 14 15 17 17 18 22 26 28 30 29 27 25 21 19 18 18 18 17 16 15 15 16 16 17 17 17 15 13 10 9 8 8 7 7 7 6 6 6 6 6 6 6 6 5 5 5 4
25 25 26 26 25 23 21 21 20 21 21 20 18 18 16 15 15 16 18 19 19 21 25 28 30 30 29 26 23 20 19 19 18 18 17 16 16 17 17 18 18 17 15 13 12 11 10 9 8 8 7 7 8 7 7 6 6 6 6 6 5 5 5
25 25 26 25 25 24 23 21 20 20 22 21 20 19 18 17 17 17 19 21 21 22 24 28 31 31 30 27 24 22 20 20 19 19 18 18 18 18 18 19 18 18 16 15 14 13 12 11 10 9 8 8 8 8 8 7 6 6 6 6 6 5 6
26 26 25 24 24 24 24 23 21 20 22 24 23 22 21 20 20 19 20 22 23 22 23 27 31 32 30 28 26 23 21 21 21 20 20 19 19 19 19 19 19 18 18 17 16 15 14 13 12 10 10 9 9 9 8 8 7 7 7 6 6 5 6
27 26 24 23 23 24 25 24 23 21 22 25 26 25 25 24 23 21 21 22 23 24 24 27 31 33 31 29 27 25 24 23 22 22 21 19 19 20 19 19 19 19 19 18 18 16 15 14 12 11 11 10 10 10 9 8 8 7 7 7 6 6 6
28 26 23 22 22 24 25 25 25 24 24 25 26 26 26 26 24 23 22 22 24 25 26 26 29 32 33 31 29 27 26 25 24 23 22 20 20 21 21 20 20 20 19 19 18 17 16 15 14 12 11 11 11 11 10 9 9 8 8 8 8 7 7
29 26 24 23 22 23 24 25 26 27 26 26 26 27 27 26 25 25 24 23 23 25 26 26 27 31 33 32 30 29 27 26 25 25 23 21 21 21 22 22 21 20 20 20 19 19 18 16 15 14 13 12 11 11 11 10 10 10 10 10 9 9 9
30 27 25 24 22 22 23 25 27 27 26 25 25 26 26 26 27 26 25 24 23 24 25 27 27 29 32 33 32 30 29 28 27 26 25 23 21 22 23 23 22 21 20 20 20 20 19 18 17 15 14 13 13 12 12 12 11 11 11 11 11 10 10
31 29 28 26 23 22 22 23 25 26 25 25 26 26 26 26 27 27 27 26 24 23 24 26 27 29 31 33 34 33 32 30 28 27 26 24 23 22 23 24 23 22 21 21 21 20 20 19 18 17 16 15 15 14 14 14 13 12 12 12 12 12 11
34 32 31 29 26 24 23 23 23 24 25 26 27 27 27 27 27 28 29 28 26 24 25 26 27 28 30 31 34 35 34 32 30 29 28 26 25 24 24 25 24 23 22 22 21 21 21 20 20 19 18 18 17 17 17 16 15 14 14 13 14 13 12
37 35 33 32 29 27 25 25 25 25 25 26 28 28 28 28 29 30 30 29 28 27 27 27 27 28 29 31 33 34 34 33 32 31 29 28 27 27 26 26 25 24 24 23 23 22 22 21 21 20 20 20 20 20 19 19 18 17 16 15 15 15 14
39 37 36 35 33 30 28 27 26 26 26 26 28 29 28 29 30 30 31 31 30 30 30 29 27 28 29 31 32 33 34 34 34 33 32 31 30 30 29 28 27 26 26 25 24 24 24 23 22 22 22 22 22 22 22 21 20 19 18 17 17 16 16
42 39 37 37 36 34 32 30 28 27 26 26 27 27 28 29 29 29 31 32 32 31 31 30 28 28 29 31 32 32 33 34 35 35 35 34 34 33 31 30 29 29 28 27 27 26 25 24 23 23 23 24 24 24 24 23 23 22 20 19 18 18 17
44 42 39 39 39 38 36 34 32 30 28 27 27 27 27 28 29 29 30 32 33 33 31 29 28 28 29 30 31 32 33 35 36 37 37 37 36 35 33 32 31 31 30 29 28 27 27 26 25 25 25 25 25 25 25 25 24 24 23 21 21 20 19
47 45 43 42 42 42 40 38 36 34 32 31 30 29 28 28 28 30 31 31 32 33 32 30 28 28 29 30 30 31 33 36 37 37 38 39 38 37 36 34 33 32 32 31 29 29 28 28 27 26 26 25 26 26 26 25 25 25 25 24 23 22 22
48 48 46 45 45 45 44 43 41 39 37 36 34 33 31 29 29 30 32 32 31 32 33 32 30 30 30 30 30 30 32 36 37 38 39 39 39 39 38 37 35 34 33 32 31 31 29 29 28 27 26 26 26 26 26 25 25 25 26 26 25 24 23
47 48 48 47 47 48 48 47 45 43 41 39 38 37 35 34 32 31 32 34 33 31 31 32 33 32 31 31 31 31 32 34 36 38 39 40 40 41 41 40 38 36 35 34 33 32 31 30 29 28 27 26 26 26 25 25 25 26 27 27 27 26 25
45 47 48 48 49 49 50 49 48 47 45 43 42 41 39 38 38 36 34 35 36 34 32 32 33 34 34 33 33 32 32 33 35 37 39 41 42 42 42 42 41 39 37 36 35 34 33 31 30 29 28 27 26 26 26 25 26 27 28 28 28 27 27
44 45 46 48 49 50 50 51 50 50 48 46 45 45 44 43 42 41 39 38 38 37 36 35 34 34 36 36 35 34 33 33 34 35 37 40 42 42 43 44 43 42 40 39 38 37 34 33 31 30 29 28 27 27 27 27 27 28 29 29 29 29 29
44 44 44 45 47 48 49 50 50 50 50 49 47 47 47 47 46 45 43 42 40 39 39 38 36 36 37 38 38 36 35 36 35 34 35 37 39 42 43 43 43 42 42 42 40 38 36 35 33 32 31 30 29 28 28 28 28 30 30 31 30 30 30
46 45 45 44 45 46 46 47 48 49 49 49 49 48 48 48 49 48 47 45 43 42 41 40 39 38 38 39 40 38 38 38 36 34 34 35 36 38 40 42 43 42 43 43 42 40 39 38 36 34 33 32 31 30 30 29 29 30 31 31 31 32 31
47 47 46 45 45 45 45 45 46 47 48 48 48 49 49 48 48 49 49 48 47 45 44 42 41 40 41 42 42 41 40 40 39 37 35 35 35 35 37 39 41 42 43 44 44 42 41 40 39 37 36 35 34 33 31 30 30 31 32 32 32 33 32
48 48 48 47 46 46 46 45 45 45 46 47 46 46 48 49 48 47 49 50 49 48 47 46 44 44 45 44 42 41 41 40 39 38 37 36 35 34 35 37 39 41 42 43 43 42 41 41 41 39 39 38 37 35 33 33 33 32 32 33 33 32 31
50 50 49 48 48 48 47 47 46 46 46 48 47 44 45 48 49 48 46 47 49 50 49 48 48 48 46 43 40 40 42 42 41 40 39 38 36 34 34 35 36 38 39 40 41 41 41 42 41 40 40 39 39 38 37 36 35 34 33 33 33 31 30
52 51 51 50 49 49 49 49 49 48 47 48 50 48 44 44 47 48 47 45 46 48 49 50 51 50 48 44 41 41 42 43 43 43 42 40 39 37 35 34 34 35 36 37 38 40 40 41 41 40 39 40 40 41 40 38 38 37 36 35 34 32 30
53 53 53 52 51 51 51 52 51 51 50 49 50 51 49 46 45 47 48 48 46 47 49 50 50 50 49 47 46 44 43 43 43 43 43 43 42 39 38 36 35 34 33 34 35 37 38 39 38 38 38 39 40 41 41 40 40 40 39 39 38 36 33
54 54 54 53 53 52 52 53 54 53 53 52 52 52 52 50 48 46 48 49 48 48 49 49 48 47 47 48 48 47 47 46 43 41 41 43 43 43 41 39 37 35 34 34 36 36 36 37 38 37 37 39 39 40 39 39 39 41 42 41 40 39 37
55 56 56 55 55 54 53 54 55 56 55 55 54 54 53 53 52 51 49 48 48 49 50 50 49 48 48 48 48 47 47 48 47 44 41 41 43 44 44 43 41 39 37 37 37 37 37 37 38 38 37 39 40 39 39 39 39 40 41 42 42 42 40
57 57 58 58 58 57 55 55 56 57 58 57 57 57 56 54 54 54 54 52 50 49 49 50 50 50 49 49 48 47 47 48 48 48 46 44 42 43 44 44 43 42 41 40 40 40 39 38 39 38 38 39 40 41 41 40 40 39 40 42 43 43 42
60 59 59 60 60 60 59 57 57 58 59 60 60 59 59 58 56 55 55 56 55 53 51 50 51 51 50 50 50 49 49 48 47 47 47 47 45 43 43 43 44 44 44 43 42 42 41 40 40 40 39 39 41 41 42 42 41 39 39 42 44 44 43
61 62 61 62 62 63 62 61 60 60 61 62 62 62 61 61 60 58 56 57 57 57 55 53 53 52 51 51 51 51 50 50 48 47 46 47 47 46 44 44 43 43 43 44 43 44 44 43 42 41 41 41 41 41 42 42 41 40 40 42 45 45 44
63 64 64 63 64 65 65 64 63 63 63 63 64 65 64 64 63 62 60 59 58 58 57 57 56 55 54 53 52 52 52 51 49 48 48 47 47 47 46 45 44 43 41 42 43 44 45 46 45 43 42 42 42 42 42 41 40 39 39 41 44 46 46
67 66 66 66 66 67 68 68 67 66 66 66 66 67 67 67 66 65 64 63 62 60 59 58 58 58 57 56 54 54 53 52 50 50 49 48 47 47 47 46 46 45 43 41 42 44 45 46 47 46 44 43 42 41 40 39 38 36 36 38 39 43 45
72 71 70 69 69 68 69 70 70 69 68 68 69 70 70 69 69 69 67 67 65 64 62 60 59 59 59 58 57 55 54 53 52 52 50 49 47 47 48 48 48 47 45 44 44 44 43 44 45 47 47 45 43 41 39 38 36 34 35 37 36 37 40
76 75 75 73 72 71 71 71 72 72 71 71 71 73 73 72 72 72 71 70 68 67 66 64 62 61 60 60 59 58 57 57 55 52 50 50 49 48 49 50 50 48 47 47 47 45 43 42 42 45 48 47 45 42 39 36 35 34 34 36 38 40 40
76 78 78 78 77 76 74 73 73 74 74 73 73 74 75 75 75 75 74 73 71 70 68 67 66 64 63 62 61 60 60 60 58 54 51 49 48 49 50 51 50 48 48 49 49 47 44 41 40 42 46 47 45 43 41 39 37 36 34 34 36 38 38
71 76 79 81 81 81 80 78 76 76 76 76 76 76 76 77 77 77 77 77 75 73 71 69 68 67 66 65 64 63 62 62 61 59 56 50 47 47 49 50 50 49 48 49 50 49 46 44 41 41 42 43 44 43 43 43 41 38 36 36 36 34 32
54 64 73 79 82 83 84 83 81 79 78 78 78 78 78 78 78 79 79 79 79 77 74 71 69 67 67 68 67 66 65 64 63 63 62 57 52 49 47 46 47 48 48 49 50 50 48 46 44 42 39 39 41 42 41 42 42 40 40 41 40 37 35
Wind_Direction
221 219 217 216 218 220 219 214 212 213 212 206 199 197 195 195 198 201 202 204 205 203 202 200 195 194 199 205 206 202 197 199 206 208 208 210 208 204 201 200 197 195 192 189 189 194 201 210 218 224 230 234 237 238 235 226 210 200 197 192 186 181 177
218 217 216 216 217 220 223 221 217 215 213 208 202 197 194 193 197 199 200 202 205 205 204 203 199 196 199 204 206 204 201 201 206 209 210 212 212 209 205 203 200 196 191 186 187 191 196 203 211 223 235 242 243 242 238 230 217 208 202 197 194 183 175
216 217 217 217 218 220 223 225 222 216 212 208 204 200 196 195 198 200 200 201 204 206 206 205 203 200 200 202 204 205 204 206 209 211 212 212 213 211 207 205 202 197 192 188 189 193 196 201 208 218 233 243 246 242 238 232 222 217 212 208 205 193 181
217 217 217 217 220 221 224 227 225 218 210 207 205 202 198 198 201 203 203 203 203 206 207 206 205 204 203 202 203 203 204 207 213 215 214 213 212 212 210 207 204 201 196 192 194 197 198 203 210 217 227 237 242 240 237 233 228 224 223 222 219 210 200
218 217 215 215 218 221 224 227 229 224 215 209 208 206 204 202 204 206 207 205 204 206 208 207 205 205 205 205 203 202 202 206 213 218 218 214 212 212 212 210 207 205 201 198 200 202 202 206 212 219 227 233 238 238 234 231 229 228 229 231 231 229 221
218 217 213 212 214 218 221 223 227 227 221 215 212 213 212 210 209 209 210 209 206 207 210 210 208 206 206 207 206 204 203 205 211 219 221 217 213 213 214 212 209 207 205 204 206 206 206 208 213 219 225 232 237 237 234 230 228 228 230 233 236 238 236
216 216 214 212 212 215 216 218 222 224 222 217 214 216 219 220 218 216 215 214 211 210 211 212 211 208 208 209 210 209 207 206 210 216 221 221 217 215 215 214 212 209 208 209 210 211 210 210 212 216 221 227 234 238 236 232 229 227 229 232 235 238 241
214 213 213 213 212 214 215 217 221 223 220 216 216 218 221 224 225 225 223 220 216 214 213 214 214 212 210 210 211 213 212 210 212 215 219 221 221 220 218 217 215 212 211 212 214 215 215 213 213 215 217 221 227 233 235 234 232 229 227 230 234 237 239
213 212 212 213 213 215 218 219 223 226 222 218 219 221 223 226 227 228 228 225 222 218 217 217 216 216 215 212 212 214 214 214 214 216 219 220 221 223 223 221 219 215 213 215 216 218 219 218 216 215 216 217 220 226 230 231 232 231 228 228 231 234 236
214 212 212 212 213 215 219 222 223 225 226 226 227 226 228 229 230 230 230 230 227 223 221 220 219 219 219 217 215 216 216 216 215 217 220 221 221 223 225 226 223 219 217 217 218 220 221 221 219 218 217 217 218 220 223 226 228 230 229 228 229 232 234
214 213 213 214 215 214 218 223 224 223 223 227 232 233 232 231 230 231 232 232 230 227 224 222 220 221 222 221 220 219 219 219 218 218 220 222 222 223 225 226 226 224 221 219 219 221 222 222 221 221 220 218 218 219 220 223 225 227 228 228 228 230 232
213 214 215 216 216 215 216 221 225 225 222 222 227 233 237 236 232 229 230 232 232 230 228 225 222 222 223 224 223 222 221 221 221 220 221 222 223 224 224 225 226 226 225 222 220 221 223 223 221 221 221 221 220 220 220 221 223 226 228 228 228 228 229
212 213 216 217 217 216 216 219 224 227 227 224 225 229 235 240 239 233 231 232 233 234 233 229 225 224 226 227 226 224 223 223 223 222 222 223 224 225 224 224 224 226 227 225 223 222 223 224 223 222 222 222 222 222 222 222 223 225 227 228 229 229 228
213 214 217 218 218 216 216 218 221 225 229 230 229 229 231 236 241 239 235 234 233 234 236 235 231 228 229 231 230 228 226 225 225 224 224 224 225 226 226 226 225 227 228 227 226 225 225 224 224 223 223 224 225 224 224 223 223 225 227 229 230 231 231
215 217 219 220 220 218 217 217 219 222 226 230 232 232 231 233 238 240 240 240 236 232 234 236 235 233 233 234 234 232 230 229 227 226 226 226 227 228 228 228 228 228 229 230 229 229 228 227 226 226 225 226 227 227 227 226 225 227 229 230 230 231 232
219 220 221 221 221 221 220 219 219 220 223 227 231 233 233 233 235 238 241 243 241 235 232 231 233 235 236 236 236 235 234 232 230 229 228 228 228 229 230 230 230 230 230 231 232 232 232 231 231 230 229 228 228 230 230 229 229 230 231 232 232 233 233
221 222 223 222 221 222 222 222 222 223 224 226 229 232 234 234 234 236 238 241 243 241 236 232 231 232 235 237 238 239 239 238 235 232 231 230 230 230 231 231 232 232 232 232 233 234 234 234 235 235 234 233 232 232 232 231 231 232 233 234 234 235 236
222 223 224 223 222 223 224 225 225 226 228 229 229 230 233 234 234 234 236 239 241 241 241 240 235 232 233 235 237 239 241 243 241 238 235 233 232 231 232 232 233 233 233 234 235 235 234 235 236 238 238 237 235 234 234 232 232 234 235 236 236 237 237
224 225 225 225 224 224 224 226 227 229 231 232 231 230 231 233 234 235 236 238 239 239 240 242 241 235 233 234 235 237 239 242 243 243 241 238 236 235 234 233 233 234 234 235 236 236 235 235 235 237 239 239 238 237 235 234 234 235 237 237 237 238 238
227 227 226 226 227 226 225 226 227 229 231 233 233 232 231 232 233 235 237 238 240 240 240 241 241 239 237 237 236 235 237 240 241 243 244 243 242 241 240 239 237 236 236 237 238 239 238 237 236 236 237 238 238 237 236 235 235 237 238 239 239 239 239
230 230 229 228 228 228 227 226 227 228 230 231 233 234 233 233 233 235 237 239 240 241 242 242 242 242 241 240 237 236 237 240 240 241 243 244 244 244 244 244 243 241 240 240 240 241 241 242 241 239 238 238 238 238 238 237 237 238 240 241 241 241 241
233 232 231 230 229 229 229 228 227 228 229 230 233 235 234 234 235 235 236 238 240 242 243 244 244 243 243 241 238 236 237 240 241 241 241 243 243 243 244 245 245 244 243 242 241 242 242 244 245 244 243 242 240 239 239 239 239 240 241 243 243 244 244
235 234 232 231 230 229 229 229 229 228 228 228 231 234 235 234 235 235 235 237 240 241 243 245 245 244 245 245 243 240 239 240 242 243 244 244 244 244 244 246 247 246 246 245 244 243 243 244 245 246 246 247 246 244 242 242 242 242 243 244 245 246 247
237 236 234 233 231 229 229 229 230 229 228 227 228 232 234 233 233 233 235 237 238 240 243 244 245 246 248 250 249 246 242 241 241 242 244 245 246 246 246 247 248 249 248 248 248 247 246 245 245 245 247 248 250 250 247 246 245 245 245 246 248 248 248
238 238 237 235 233 230 229 228 229 229 229 228 228 230 232 232 231 231 233 236 238 239 241 243 245 247 248 250 251 250 247 243 240 240 241 243 244 245 245 246 248 249 249 249 249 249 249 248 246 246 246 248 250 251 251 249 249 249 248 248 249 250 249
238 239 239 237 236 233 230 228 228 228 228 228 229 230 231 232 232 231 232 235 237 239 240 241 245 248 249 249 250 251 251 248 243 238 238 240 241 242 244 245 246 248 249 250 250 249 250 250 248 247 248 248 248 250 252 252 252 252 251 250 250 250 251
238 238 239 238 238 236 233 230 227 227 227 228 228 230 231 232 232 232 233 235 237 240 241 242 244 247 249 249 249 251 253 254 251 244 239 237 238 240 241 242 243 245 246 248 249 248 248 248 248 248 248 248 248 249 251 252 253 253 252 252 251 251 251
238 238 238 238 238 237 236 234 230 227 226 227 227 228 230 231 232 233 234 234 235 237 241 243 245 246 247 249 250 250 251 253 255 253 247 241 238 238 240 240 241 242 242 244 246 247 246 246 246 247 248 249 250 250 250 251 252 252 252 252 252 251 251
239 238 237 237 238 237 236 235 234 232 228 226 227 228 228 230 231 233 234 236 236 236 237 240 243 245 246 248 250 251 250 251 252 254 254 251 245 241 241 242 242 242 243 243 243 244 245 245 245 246 247 247 248 250 250 250 250 251 251 251 251 250 249
242 240 237 237 237 237 235 234 235 235 233 229 227 227 228 229 230 232 234 236 237 238 238 238 239 242 243 246 248 249 249 249 250 252 254 255 253 248 246 246 244 242 244 244 244 244 245 246 247 247 246 245 246 248 249 248 248 250 251 251 251 249 248
244 242 240 238 237 237 236 234 233 234 235 234 230 229 229 229 230 231 233 235 237 239 239 239 240 241 242 243 245 247 248 249 250 251 253 256 257 254 251 250 248 245 245 245 247 248 247 247 248 249 248 247 245 245 245 246 247 249 250 250 251 250 247
245 244 243 241 238 237 236 235 233 232 233 235 234 232 230 230 231 232 233 234 236 238 238 239 241 242 242 243 243 245 246 247 249 250 251 254 258 258 256 253 251 250 248 248 249 250 249 248 248 248 249 248 246 245 246 247 248 249 248 249 252 252 248
245 245 244 243 241 239 238 237 235 232 231 232 234 234 233 231 231 232 233 234 235 237 238 239 240 242 244 244 244 245 246 246 247 248 249 251 256 258 258 257 254 251 251 252 252 252 251 249 248 247 248 248 246 245 246 247 248 249 247 248 252 252 245
245 245 244 244 242 241 239 238 237 235 233 231 232 233 234 234 233 233 234 235 236 237 238 239 240 241 243 244 244 245 246 247 248 248 247 249 252 254 256 258 256 253 252 254 255 254 254 252 249 246 247 247 244 242 243 246 247 247 244 242 243 245 243
244 244 244 244 244 242 241 240 239 238 236 233 232 231 232 234 234 233 233 235 237 238 238 239 240 241 242 243 243 243 245 246 248 248 248 249 250 250 253 256 256 255 255 255 256 256 257 256 253 248 245 245 243 241 242 244 244 243 243 241 239 241 244
244 244 244 244 244 244 242 241 240 239 238 237 235 233 231 232 233 234 233 234 236 238 239 241 241 241 241 243 244 243 244 246 247 248 249 250 250 249 250 252 253 255 256 256 256 256 256 258 259 254 247 243 242 241 240 239 239 240 242 243 244 244 244
245 244 244 244 244 244 243 242 241 240 239 239 238 236 233 231 232 233 233 233 234 237 239 241 243 242 241 242 243 244 244 245 247 248 248 249 250 250 251 251 251 252 253 255 255 255 254 255 257 256 249 242 240 240 239 237 237 238 239 241 245 246 242
250 247 246 245 245 245 244 243 242 240 240 239 239 238 237 234 232 232 233 233 233 235 237 239 242 244 243 242 243 244 244 245 246 248 248 248 249 251 251 250 249 249 251 253 253 252 252 252 252 252 251 244 238 236 236 236 238 240 240 241 245 247 247